Location: Amon Carter Post Office
(32.8281°N, 97.0484°W)
Time: 06:49:57
(UTC+00:00)

CZ-2C R/B - Pass Details

Date: 01 July 2022
Orbit: 783 x 871 km, 98.2° (Epoch: 11 August)

Event Time Altitude Azimuth Distance (km) Brightness Sun altitude
Rises 10:37:37 0° 154° (SSE) 3,383 5.7 -9.1°
Reaches altitude 10° 10:39:59 10° 150° (SSE) 2,464 5.1 -8.7°
Maximum altitude 10:45:20 56° 74° (ENE) 1,018 3.6 -7.7°
Drops below altitude 10° 10:50:48 10° 357° (N) 2,515 5.6 -6.8°
Sets 10:53:14 0° 354° (N) 3,461 6.3 -6.3°
